[[{"header":{"parameterUnit":"m.s-1","parameterCategory":1,"la1":30.2991,"la2":30.254,"lo1":-89.0895,"lo2":-89.0444,"dy":0.0017,"dx":0.0017,"nx":28,"ny":28,"refTime":"2024-05-14T03:00:00:Z","depth":0,"parameterNumber":2,"parameterNumberName":"U-component_of_WINDS"},"data":[0,0,0,0,0,0,0,0,0,0,0,0,0,0,0,0,0,0,0,0,0,0,0,0,0,0,0,0,0,0,0,0,0,0,0,0,0,0,0,0,0,0,0,0,0,0,0,0,0,0,0,0,0,0,0,0,0,0,4.2722,4.2722,0,4.2772,4.2773,4.2773,4.2733,4.2731,4.2729,4.2728,4.2779,4.2782,4.2785,0,0,0,0,0,0,0,0,0,0,0,0,0,4.2589,4.2592,4.2722,4.2722,4.2723,4.2772,4.2773,4.2773,4.2733,4.2731,4.2729,4.2727,4.2778,4.2782,4.2785,0,0,0,0,0,0,0,0,0,0,0,0,0,4.2644,4.2593,4.2722,4.2709,4.2708,4.2772,4.2773,4.2773,4.2733,4.2731,4.2728,4.2726,4.2777,4.2781,4.2786,4.2865,0,0,4.2799,4.2801,0,0,0,0,0,0,0,0,4.2641,4.2649,4.271,4.271,4.2709,4.2743,4.2745,4.2804,4.2734,4.2724,4.2728,4.2725,4.2769,4.2774,4.2789,4.2867,4.2869,4.28,4.2802,4.2804,4.2805,0,0,0,0,0,0,0,4.2637,4.2647,4.2742,4.2711,4.2711,4.27,4.2705,4.2756,4.276,4.2725,4.2722,4.2728,4.2769,4.2785,4.279,4.287,4.2799,4.2803,4.2806,4.2808,4.3012,4.3014,0,0,0,0,0,0,4.2635,4.2644,4.274,4.2743,4.2668,4.2705,4.271,4.2735,4.276,4.2761,4.273,4.2726,4.2779,4.2785,4.2792,4.2883,4.2804,4.2808,4.2811,4.3009,4.3012,4.3015,0,0,0,0,0,0,4.2632,4.2644,4.2738,4.2693,4.2704,4.271,4.2738,4.2737,4.2754,4.2764,4.2765,4.2746,4.2777,4.2786,4.2846,4.2885,4.281,4.2814,4.3006,4.301,4.3014,4.3068,0,0,0,0,0,0,4.2629,4.2643,4.2674,4.2694,4.2706,4.2792,4.274,4.274,4.2762,4.2757,4.2779,4.2781,4.2776,4.284,4.285,4.2889,4.2818,4.3002,4.3007,4.3012,4.3063,4.3074,4.3083,0,0,0,0,0,4.2624,4.2688,4.2675,4.2687,4.2745,4.2794,4.2802,4.2794,4.2765,4.2795,4.2801,4.278,4.2879,4.2846,4.2858,4.2899,4.3,4.3006,4.3012,4.3059,4.3072,4.3083,0,0,0,0,0,0,4.2673,4.269,4.2677,4.2749,4.277,4.2787,4.2825,4.2809,4.2839,4.2833,4.2823,4.2829,4.2892,4.2902,4.2865,4.2975,4.2934,4.2943,4.2966,4.2979,4.2988,4.2984,4.2822,0,0,0,0,0,4.2692,4.2731,4.2744,4.2806,4.2818,4.282,4.2841,4.2834,4.2856,4.2864,4.2875,4.2897,4.2933,4.2956,4.299,4.3065,4.3068,4.3099,4.3109,4.3117,4.3124,4.3161,4.3174,4.3035,4.3035,4.3035,0,0,4.2732,4.2746,4.2771,4.2816,4.2832,4.2872,4.2828,4.2873,4.2901,4.2871,4.2928,4.2937,4.296,4.3028,4.3058,4.3038,4.3163,4.3125,4.3131,4.3134,4.3169,4.3182,4.3194,4.304,4.3039,4.3038,0,0,4.2824,4.284,4.2892,4.2908,4.2933,4.2933,4.2946,4.2965,4.2969,4.3027,4.3004,4.3038,4.3101,4.3118,4.3134,4.3231,4.3212,4.3243,4.3294,4.3331,4.3342,4.3351,4.3383,4.3395,4.325,4.325,4.3251,0,4.287,4.2929,4.2921,4.2967,4.2986,4.296,4.3012,4.3029,4.3063,4.3076,4.3054,4.313,4.3144,4.3213,4.3237,4.3252,4.3265,4.3239,4.3341,4.335,4.3359,4.339,4.3402,4.3254,4.3253,4.3253,4.3253,0,4.2984,4.3025,4.3065,4.3097,4.3121,4.317,4.3168,4.3194,4.3184,4.3187,4.3244,4.326,4.3295,4.3311,4.3303,4.3379,4.3365,4.3342,4.3301,4.3376,4.3404,4.3416,4.3259,4.3257,4.3256,4.3256,0,0,4.3108,4.3134,4.3148,4.3162,4.3186,4.3217,4.3264,4.3298,4.3319,4.3344,4.3381,4.3434,4.3412,4.3431,4.3424,4.3456,4.3529,4.3429,4.3429,4.3444,4.361,4.3626,4.364,4.3517,4.3519,4.3521,4.3607,0,4.3199,4.328,4.3273,4.335,4.3387,4.3362,4.3403,4.3421,4.3425,4.3456,4.346,4.3497,4.3466,4.3477,4.3508,4.3513,4.3561,4.3507,4.355,4.3551,4.3542,4.3655,4.3672,4.3753,4.3619,4.3621,4.3622,0,4.3316,4.3343,4.3423,4.344,4.3455,4.3491,4.3521,4.3552,4.3572,4.3572,4.3592,4.3579,4.3625,4.3584,4.3646,4.3609,4.3626,4.3631,4.3634,4.3636,4.359,4.3657,4.3779,4.3791,4.364,4.3638,4.3637,0,4.3395,4.3452,4.3506,4.3519,4.354,4.3566,4.3576,4.3594,4.3614,4.364,4.3652,4.3684,4.37,4.3724,4.3719,4.369,4.3781,4.374,4.3781,4.3781,4.38,4.3798,4.3923,4.3815,4.3815,4.3815,4.3814,0,4.3496,4.3545,4.3542,4.3575,4.3629,4.362,4.3674,4.3681,4.3696,4.3729,4.3711,4.3743,4.3735,4.3766,4.3763,4.3813,4.3822,4.3822,4.382,4.3822,4.3822,4.3831,4.3825,4.3818,4.3817,4.3816,4.3816,0,4.3593,4.3593,4.365,4.3665,4.367,4.3708,4.3721,4.3752,4.3754,4.3796,4.3805,4.3808,4.3843,4.3841,4.3882,4.3879,4.394,4.3933,4.3933,4.3931,4.397,4.3966,4.4105,4.4121,4.4004,4.4005,4.4006,0,4.3656,4.3693,4.3712,4.3733,4.3744,4.3778,4.3798,4.3791,4.3813,4.3837,4.3865,4.3899,4.3925,4.3982,4.3987,4.4017,4.4009,4.4056,4.4014,4.4014,4.4007,4.4003,4.4006,4.4063,4.4065,4.4066,4.4067,0,4.3767,4.3765,4.3795,4.3824,4.3849,4.3872,4.3893,4.3911,4.3906,4.3931,4.3966,4.3987,4.4027,4.406,4.4088,4.4097,4.4081,4.408,4.4091,4.4092,4.4089,4.4088,4.3953,4.4077,4.4076,4.4075,4.4074,4.4074,4.3847,4.3878,4.3895,4.3929,4.3944,4.3963,4.3992,4.3997,4.4027,4.4059,4.4053,4.4092,4.411,4.4146,4.4158,4.4188,4.4171,4.4187,4.4191,4.4194,4.4197,4.4087,4.4193,4.4193,4.4193,4.4193,4.4192,0,4.3955,4.3965,4.3996,4.4025,4.4051,4.4033,4.4055,4.4077,4.4112,4.413,4.4156,4.4196,4.4227,4.4235,4.4264,4.4287,4.4279,4.4294,4.4291,4.4293,4.4212,4.4198,4.4299,4.4299,4.4299,4.4299,4.4299,4.4299,4.4014,4.4065,4.4064,4.4121,4.413,4.4169,4.4182,4.4199,4.4213,4.4258,4.4284,4.4289,4.4302,4.4332,4.4359,4.4361,4.4371,4.4389,4.4387,4.431,4.4299,4.4289,4.4276,4.4392,4.4392,4.4465,4.4466,4.4466]},{"header":{"parameterUnit":"m.s-1","parameterCategory":1,"la1":30.2991,"la2":30.254,"lo1":-89.0895,"lo2":-89.0444,"dy":0.0017,"dx":0.0017,"nx":28,"ny":28,"refTime":"2024-05-14T03:00:00:Z","depth":0,"parameterNumber":3,"parameterNumberName":"V-component_of_WINDS"},"data":[0,0,0,0,0,0,0,0,0,0,0,0,0,0,0,0,0,0,0,0,0,0,0,0,0,0,0,0,0,0,0,0,0,0,0,0,0,0,0,0,0,0,0,0,0,0,0,0,0,0,0,0,0,0,0,0,0,0,6.034,6.0342,0,6.0524,6.0526,6.0528,6.0553,6.0551,6.0549,6.0548,6.0726,6.0732,6.0739,0,0,0,0,0,0,0,0,0,0,0,0,0,6.0002,6.0008,6.034,6.0343,6.0345,6.0524,6.0526,6.0529,6.0553,6.0551,6.0549,6.0547,6.0724,6.0732,6.0739,0,0,0,0,0,0,0,0,0,0,0,0,0,6.0163,6.001,6.034,6.0379,6.0384,6.0523,6.0526,6.0529,6.0554,6.0551,6.0548,6.0546,6.0722,6.0731,6.074,6.085,0,0,6.0769,6.0773,0,0,0,0,0,0,0,0,6.0154,6.0176,6.0371,6.0376,6.0383,6.0513,6.0472,6.0636,6.0554,6.0489,6.0548,6.0545,6.0657,6.0671,6.0711,6.0858,6.0866,6.077,6.0776,6.078,6.0783,0,0,0,0,0,0,0,6.0143,6.0168,6.0413,6.0374,6.0381,6.0384,6.0404,6.0503,6.0584,6.0494,6.0497,6.0519,6.0659,6.0702,6.0715,6.0869,6.077,6.0778,6.0784,6.0788,6.1114,6.1117,0,0,0,0,0,0,6.0126,6.0158,6.0407,6.0418,6.026,6.0392,6.0415,6.0474,6.0584,6.0598,6.0521,6.0519,6.0687,6.0704,6.0722,6.0858,6.078,6.0789,6.0794,6.1111,6.1115,6.1118,0,0,0,0,0,0,6.0118,6.0148,6.0399,6.0289,6.0321,6.0401,6.0467,6.0479,6.0521,6.0604,6.0617,6.055,6.0686,6.0708,6.0819,6.0864,6.0793,6.0802,6.1108,6.1112,6.1116,6.113,0,0,0,0,0,0,6.0109,6.0145,6.019,6.029,6.0327,6.0496,6.047,6.0484,6.0539,6.0539,6.0635,6.0648,6.0685,6.0804,6.0828,6.0876,6.0809,6.1104,6.111,6.1115,6.1126,6.1134,6.1142,0,0,0,0,0,6.0097,6.0184,6.0192,6.0222,6.0385,6.0499,6.0519,6.0564,6.0542,6.0587,6.0639,6.0645,6.0855,6.0815,6.0842,6.0894,6.1101,6.1108,6.1115,6.1122,6.1133,6.1142,0,0,0,0,0,0,6.0084,6.0198,6.0208,6.0331,6.0405,6.0503,6.056,6.0573,6.0652,6.0648,6.0697,6.0718,6.0826,6.0871,6.0824,6.1005,6.0976,6.0988,6.0973,6.0983,6.0991,6.0978,6.0817,0,0,0,0,0,6.0096,6.0181,6.0275,6.0375,6.0412,6.0479,6.053,6.0558,6.0636,6.0666,6.0727,6.0799,6.0882,6.0935,6.1015,6.1132,6.1153,6.1181,6.1189,6.1195,6.1205,6.127,6.1283,6.114,6.114,6.114,0,0,6.012,6.0193,6.0244,6.0374,6.0435,6.052,6.0505,6.0595,6.0658,6.0679,6.0788,6.0834,6.0918,6.1032,6.1085,6.1073,6.1249,6.1203,6.1208,6.1215,6.1278,6.1291,6.1303,6.1145,6.1144,6.1143,0,0,6.0209,6.0273,6.0364,6.0426,6.0519,6.0564,6.0585,6.0681,6.0714,6.0825,6.0842,6.0915,6.1056,6.1116,6.1164,6.1275,6.1283,6.13,6.1341,6.1404,6.1415,6.1425,6.1464,6.1478,6.1309,6.1309,6.1309,0,6.0227,6.0359,6.0407,6.0498,6.0554,6.058,6.067,6.0727,6.084,6.0877,6.0862,6.104,6.1098,6.1226,6.1254,6.1292,6.1317,6.1289,6.141,6.1421,6.1431,6.1469,6.1483,6.1311,6.1311,6.1311,6.131,0,6.0376,6.0467,6.0528,6.0641,6.0704,6.0793,6.0853,6.091,6.0932,6.0977,6.1088,6.1159,6.1255,6.1287,6.1308,6.1418,6.1408,6.1401,6.1372,6.1445,6.1481,6.1496,6.1313,6.1312,6.1312,6.1312,0,0,6.0461,6.0602,6.0623,6.0675,6.078,6.0849,6.0939,6.1036,6.1083,6.116,6.1236,6.1355,6.135,6.1404,6.1432,6.1487,6.157,6.1474,6.1476,6.1489,6.1695,6.17,6.1716,6.1576,6.1579,6.1582,6.1688,0,6.0562,6.0728,6.0774,6.0912,6.0996,6.1021,6.1099,6.1171,6.1215,6.129,6.1337,6.1422,6.1408,6.1442,6.1497,6.1549,6.1612,6.1541,6.1644,6.1648,6.1623,6.1736,6.1741,6.1838,6.1703,6.1705,6.1707,0,6.0702,6.0786,6.0933,6.1028,6.1065,6.1135,6.1227,6.13,6.138,6.1408,6.147,6.1493,6.1585,6.1552,6.1678,6.1628,6.1673,6.1704,6.1709,6.172,6.1682,6.1749,6.187,6.1885,6.173,6.1728,6.1726,0,6.0749,6.0898,6.1006,6.1049,6.1163,6.1211,6.126,6.1339,6.1394,6.1473,6.1509,6.1596,6.1644,6.171,6.1755,6.1726,6.1877,6.1847,6.1901,6.19,6.1931,6.1929,6.2061,6.196,6.196,6.1959,6.1959,0,6.0857,6.0946,6.1029,6.1095,6.1195,6.1247,6.1343,6.1392,6.1462,6.1536,6.1562,6.163,6.1685,6.176,6.1795,6.1894,6.1915,6.1939,6.1947,6.1937,6.1934,6.1967,6.1961,6.1963,6.1962,6.1962,6.1961,0,6.0927,6.0986,6.1106,6.1204,6.1231,6.13,6.1383,6.1447,6.1492,6.1586,6.161,6.168,6.177,6.1822,6.1934,6.1957,6.2067,6.2072,6.2041,6.2045,6.2095,6.209,6.2253,6.2277,6.216,6.2161,6.2162,0,6.0992,6.1061,6.1168,6.1222,6.1273,6.1357,6.1415,6.1467,6.1525,6.1622,6.1674,6.1766,6.1842,6.1984,6.2043,6.2128,6.2135,6.2186,6.2148,6.2135,6.2136,6.2131,6.2138,6.2193,6.2194,6.2195,6.2195,0,6.11,6.1127,6.121,6.1304,6.1373,6.1449,6.1523,6.1564,6.1629,6.1692,6.1786,6.1846,6.1962,6.2052,6.2142,6.2189,6.2202,6.2207,6.2224,6.2214,6.2194,6.2206,6.2059,6.2203,6.2202,6.2202,6.2201,6.2201,6.1169,6.1233,6.1319,6.1411,6.1473,6.1543,6.1608,6.1663,6.1744,6.1845,6.1869,6.1968,6.2045,6.2169,6.2218,6.2294,6.2285,6.2309,6.2315,6.232,6.2322,6.2182,6.231,6.231,6.231,6.231,6.231,0,6.1279,6.1336,6.1421,6.1527,6.1598,6.1609,6.1692,6.175,6.1838,6.1911,6.1987,6.2094,6.2182,6.2248,6.2338,6.2385,6.2393,6.2407,6.2404,6.2414,6.2325,6.2302,6.2399,6.2399,6.2399,6.2399,6.2399,6.2399,6.1345,6.1453,6.149,6.1628,6.1683,6.1783,6.183,6.1893,6.1952,6.2072,6.2147,6.2191,6.2261,6.2356,6.2436,6.2453,6.2484,6.2496,6.2514,6.243,6.242,6.2411,6.2389,6.2503,6.2503,6.2597,6.2598,6.2598]}]]